When you browse on this site, cookies collect data to enhance your experience and personalize the content and advertising you see.
Visit our Privacy Policy to learn more. By continuing to use the site, you agree to this use of cookies and data.
  • In Hungary
  • List of Countries
  • For 7 days
  • Water Temperature
  • Weather Map
  • News
  • Weather Widgets
  • user-avatar
    Login

    Hourly Weather Vichiha

    Today, 17 September, Tuesday

    Time Temperature Precipitation Wind Pressure Humidity
    00:00 +7°C° 0.4 mm 5 mps 723 mmHg 92%
    01:00 +7°C° 0.4 mm 5 mps 724 mmHg 92%
    02:00 +7°C° 0 mm 5 mps 724 mmHg 92%
    03:00 +7°C° 0.3 mm 4 mps 724 mmHg 92%
    04:00 +6°C° 0.3 mm 4 mps 724 mmHg 92%
    05:00 +6°C° 0.3 mm 4 mps 724 mmHg 92%
    06:00 +7°C° 0 mm 4 mps 725 mmHg 90%
    07:00 +7°C° 0 mm 4 mps 725 mmHg 89%
    08:00 +7°C° 0 mm 4 mps 725 mmHg 86%
    09:00 +8°C° 0.2 mm 4 mps 725 mmHg 85%
    10:00 +8°C° 0.2 mm 4 mps 726 mmHg 84%
    11:00 +8°C° 0.2 mm 4 mps 726 mmHg 82%
    12:00 +8°C° 0.2 mm 4 mps 726 mmHg 80%
    13:00 +10°C° 0.2 mm 4 mps 726 mmHg 79%
    14:00 +10°C° 0.2 mm 4 mps 726 mmHg 77%
    15:00 +9°C° 0.2 mm 3 mps 726 mmHg 81%
    16:00 +9°C° 0.2 mm 3 mps 726 mmHg 84%
    17:00 +8°C° 0.2 mm 3 mps 726 mmHg 88%
    18:00 +8°C° 0.2 mm 3 mps 726 mmHg 90%
    19:00 +7°C° 0.2 mm 3 mps 727 mmHg 91%
    20:00 +7°C° 0.2 mm 2 mps 727 mmHg 93%
    21:00 +7°C° 0.1 mm 2 mps 727 mmHg 94%
    22:00 +7°C° 0.1 mm 2 mps 727 mmHg 95%
    23:00 +7°C° 0.1 mm 2 mps 727 mmHg 96%

    Tomorrow, 18 September, Wednesday

    Time Temperature Precipitation Wind Pressure Humidity
    00:00 +6°C° 0.1 mm 2 mps 727 mmHg 96%
    01:00 +6°C° 0.1 mm 2 mps 727 mmHg 97%
    02:00 +6°C° 0.1 mm 2 mps 727 mmHg 97%
    03:00 +6°C° 0 mm 2 mps 727 mmHg 97%
    04:00 +5°C° 0 mm 2 mps 727 mmHg 97%
    05:00 +5°C° 0 mm 2 mps 727 mmHg 97%
    06:00 +7°C° 0 mm 1 mps 728 mmHg 95%
    07:00 +7°C° 0 mm 1 mps 728 mmHg 94%
    08:00 +8°C° 0 mm 1 mps 728 mmHg 92%
    09:00 +9°C° 0.1 mm 1 mps 728 mmHg 87%
    10:00 +10°C° 0.1 mm 1 mps 728 mmHg 83%
    11:00 +11°C° 0.1 mm 1 mps 729 mmHg 79%
    12:00 +10°C° 0.4 mm 2 mps 729 mmHg 78%
    13:00 +10°C° 0.4 mm 2 mps 729 mmHg 77%
    14:00 +12°C° 0.4 mm 2 mps 729 mmHg 76%
    15:00 +10°C° 0.4 mm 2 mps 729 mmHg 80%
    16:00 +9°C° 0.4 mm 2 mps 729 mmHg 85%
    17:00 +8°C° 0.4 mm 2 mps 729 mmHg 89%
    18:00 +7°C° 0 mm 3 mps 730 mmHg 91%
    19:00 +7°C° 0 mm 3 mps 730 mmHg 94%
    20:00 +5°C° 0 mm 3 mps 730 mmHg 96%
    21:00 +5°C° 0 mm 3 mps 731 mmHg 95%
    22:00 +5°C° 0 mm 3 mps 731 mmHg 94%
    23:00 +5°C° 0 mm 3 mps 732 mmHg 94%

    Day after tomorrow, 19 September, Thursday

    Time Temperature Precipitation Wind Pressure Humidity
    00:00 +5°C° 0.1 mm 3 mps 732 mmHg 94%
    01:00 +5°C° 0.1 mm 3 mps 733 mmHg 94%
    02:00 +5°C° 0.1 mm 3 mps 733 mmHg 94%
    03:00 +4°C° 0.1 mm 3 mps 733 mmHg 93%
    04:00 +4°C° 0.1 mm 3 mps 734 mmHg 93%
    05:00 +3°C° 0.1 mm 3 mps 734 mmHg 92%
    06:00 +3°C° 0.1 mm 3 mps 735 mmHg 92%
    07:00 +3°C° 0.1 mm 3 mps 735 mmHg 91%
    08:00 +3°C° 0.1 mm 3 mps 736 mmHg 91%
    09:00 +3°C° 0.1 mm 3 mps 736 mmHg 84%
    10:00 +4°C° 0.1 mm 3 mps 737 mmHg 76%
    11:00 +6°C° 0.1 mm 2 mps 737 mmHg 69%
    12:00 +6°C° 0 mm 2 mps 737 mmHg 65%
    13:00 +7°C° 0 mm 2 mps 738 mmHg 62%
    14:00 +7°C° 0 mm 2 mps 738 mmHg 59%
    15:00 +6°C° 0 mm 2 mps 738 mmHg 63%
    16:00 +7°C° 0 mm 1 mps 739 mmHg 66%
    17:00 +6°C° 0 mm 1 mps 739 mmHg 70%
    18:00 +5°C° 0 mm 1 mps 739 mmHg 75%
    19:00 +5°C° 0 mm 1 mps 739 mmHg 79%
    20:00 +4°C° 0 mm 1 mps 739 mmHg 83%
    21:00 +3°C° 0 mm 1 mps 739 mmHg 86%
    22:00 +3°C° 0 mm 1 mps 740 mmHg 89%
    23:00 +2°C° 0 mm 1 mps 740 mmHg 92%

    20 September, Friday

    Time Temperature Precipitation Wind Pressure Humidity
    00:00 +2°C° 0 mm 1 mps 740 mmHg 92%
    01:00 +2°C° 0 mm 1 mps 740 mmHg 93%
    02:00 +2°C° 0 mm 1 mps 740 mmHg 94%
    03:00 +2°C° 0 mm 1 mps 740 mmHg 94%
    04:00 +2°C° 0 mm 1 mps 740 mmHg 94%
    05:00 +2°C° 0 mm 1 mps 740 mmHg 93%
    06:00 +3°C° 0 mm 1 mps 740 mmHg 88%
    07:00 +4°C° 0 mm 1 mps 740 mmHg 83%
    08:00 +5°C° 0 mm 1 mps 741 mmHg 77%
    09:00 +6°C° 0 mm 1 mps 741 mmHg 71%
    10:00 +6°C° 0 mm 2 mps 741 mmHg 65%
    11:00 +7°C° 0 mm 2 mps 741 mmHg 59%
    12:00 +7°C° 0.1 mm 2 mps 741 mmHg 58%
    13:00 +7°C° 0.1 mm 2 mps 741 mmHg 57%
    14:00 +7°C° 0.1 mm 2 mps 741 mmHg 57%
    15:00 +6°C° 0 mm 2 mps 741 mmHg 62%
    16:00 +6°C° 0 mm 2 mps 741 mmHg 67%
    17:00 +6°C° 0 mm 1 mps 741 mmHg 72%
    18:00 +5°C° 0 mm 1 mps 742 mmHg 75%
    19:00 +3°C° 0 mm 1 mps 742 mmHg 79%
    20:00 +2°C° 0 mm 1 mps 743 mmHg 83%
    21:00 +2°C° 0 mm 1 mps 743 mmHg 83%
    22:00 -1°C° 0 mm 2 mps 743 mmHg 84%
    23:00 -1°C° 0 mm 2 mps 743 mmHg 84%

    21 September, Saturday

    Time Temperature Precipitation Wind Pressure Humidity
    00:00 -1°C° 0 mm 2 mps 743 mmHg 84%
    01:00 -2°C° 0 mm 2 mps 743 mmHg 84%
    02:00 -2°C° 0 mm 2 mps 744 mmHg 84%
    03:00 -2°C° 0 mm 2 mps 744 mmHg 85%
    04:00 -3°C° 0 mm 2 mps 744 mmHg 87%
    05:00 -3°C° 0 mm 2 mps 744 mmHg 88%
    06:00 -1°C° 0 mm 2 mps 744 mmHg 84%
    07:00 +1°C° 0 mm 2 mps 744 mmHg 79%
    08:00 +3°C° 0 mm 2 mps 744 mmHg 75%
    09:00 +4°C° 0 mm 2 mps 744 mmHg 69%
    10:00 +6°C° 0 mm 2 mps 744 mmHg 63%
    11:00 +7°C° 0 mm 2 mps 744 mmHg 57%
    12:00 +7°C° 0 mm 2 mps 744 mmHg 56%
    13:00 +8°C° 0 mm 2 mps 743 mmHg 54%
    14:00 +8°C° 0 mm 3 mps 743 mmHg 52%
    15:00 +7°C° 0.1 mm 2 mps 743 mmHg 60%
    16:00 +6°C° 0.1 mm 2 mps 742 mmHg 68%
    17:00 +5°C° 0.1 mm 2 mps 742 mmHg 76%
    18:00 +4°C° 0 mm 2 mps 742 mmHg 80%
    19:00 +3°C° 0 mm 2 mps 742 mmHg 84%
    20:00 +3°C° 0 mm 2 mps 741 mmHg 88%
    21:00 +3°C° 0 mm 2 mps 741 mmHg 86%
    22:00 +2°C° 0 mm 3 mps 740 mmHg 84%
    23:00 +2°C° 0 mm 3 mps 739 mmHg 83%

    22 September, Sunday

    Time Temperature Precipitation Wind Pressure Humidity
    00:00 +1°C° 0.4 mm 4 mps 738 mmHg 86%
    01:00 +1°C° 0.4 mm 4 mps 737 mmHg 90%
    02:00 +1°C° 0.4 mm 5 mps 736 mmHg 94%
    03:00 +1°C° 1.2 mm 4 mps 734 mmHg 95%
    04:00 +3°C° 1.2 mm 4 mps 733 mmHg 96%
    05:00 +3°C° 1.2 mm 4 mps 732 mmHg 97%
    06:00 +3°C° 1.1 mm 5 mps 731 mmHg 93%
    07:00 +5°C° 1.1 mm 6 mps 730 mmHg 90%
    08:00 +6°C° 1.1 mm 7 mps 729 mmHg 86%
    09:00 +5°C° 0.4 mm 7 mps 730 mmHg 87%
    10:00 +4°C° 0.4 mm 8 mps 730 mmHg 87%
    11:00 +2°C° 0.4 mm 9 mps 731 mmHg 88%
    12:00 +1°C° 0.3 mm 9 mps 733 mmHg 89%
    13:00 0°C° 0.3 mm 9 mps 734 mmHg 91%
    14:00 0°C° 0.3 mm 8 mps 736 mmHg 93%
    15:00 0°C° 0.1 mm 7 mps 738 mmHg 92%
    16:00 +1°C° 0.1 mm 6 mps 740 mmHg 91%
    17:00 +1°C° 0.1 mm 5 mps 742 mmHg 89%
    18:00 +1°C° 0 mm 4 mps 743 mmHg 90%
    19:00 +1°C° 0 mm 4 mps 744 mmHg 91%
    20:00 +1°C° 0 mm 3 mps 745 mmHg 93%
    21:00 +1°C° 0 mm 3 mps 745 mmHg 94%
    22:00 +1°C° 0 mm 2 mps 746 mmHg 95%
    23:00 -1°C° 0 mm 2 mps 746 mmHg 96%
    Show more